Location: Nickerson Gardens
(33.9320°N, 118.2484°W)
Time: 05:26:25
(UTC+00:00)

N. Korean satellite - Pass Details

Date: 25 January 2021
Orbit: 451 x 502 km, 97.2° (Epoch: 08 March)

Event Time Altitude Azimuth Distance (km) Brightness Sun altitude
Rises 14:11:15 0° 348° (NNW) 2,491 9.9 -9.2°
Reaches altitude 10° 14:14:05 10° 322° (NW) 1,602 8.7 -8.6°
Maximum altitude 14:15:54 14° 290° (WNW) 1,376 8.2 -8.3°
Drops below altitude 10° 14:17:42 10° 258° (WSW) 1,588 8.6 -7.9°
Sets 14:20:29 0° 232° (SW) 2,450 9.8 -7.4°
